Regional Weather Roundup
Issued by NWS

Home | Current Version | Previous Version | Graphics & Text | Print | Product List | Glossary On
Versions: 1 2 3 4 5 6 7 8 9 10 11 12 13 14 15 16 17 18 19 20 21 22 23 24 25 26 27 28 29 30 31 32 33 34 35 36 37 38 39 40 41 42 43 44 45 46 47 48 49 50
401
ASUS44 KLIX 270705
RWRLA
LOUISIANA WEATHER ROUNDUP
NATIONAL WEATHER SERVICE NEW ORLEANS LA
100 AM CST TUE JAN 27 2015

NOTE: "FAIR" INDICATES FEW OR NO CLOUDS BELOW 12,000 FEET WITH NO
      SIGNIFICANT WEATHER AND/OR OBSTRUCTIONS TO VISIBILITY.
      SKY/WX - SKY CONDITION AND SIGNIFICANT WEATHER.
      TMP - AIR TEMPERATURE.    DP   - DEWPOINT TEMPERATURE.
      RH  - RELATIVE HUMIDITY.  PRES - PRESSURE.
      HX  - HEAT INDEX.         WCI  - WIND CHILL INDEX.

*  THESE STATIONS ARE NOT NWS OR FAA STATIONS AND ARE NOT UNDER
   NWS QUALITY CONTROL.

LAZ040-048-061>063-065-066-069-270800-
SOUTHEAST LOUISIANA

CITY           SKY/WX    TMP DP  RH WIND       PRES   REMARKS
N.O. AUDUBON     N/A     47  38  73 MISG        N/A
N.O. INTL ARPT CLEAR     48  38  68 W8        30.11R
N.O. LAKEFRONT CLEAR     53  42  66 W10       30.11R
N.O. DOWNTOWN* FAIR      50  34  53 CALM      30.11S
SLIDELL        CLEAR     43  36  76 CALM      30.09S
BATON ROUGE    CLEAR     46  37  71 W3        30.10F
BOOTHVILLE     CLEAR     50  44  80 W8        30.11R
BELLE CHASSE   CLEAR     48  37  65 W3        30.11R
BOGALUSA*        N/A     37  33  85 CALM      30.09F
GALLIANO*      SUNNY     52  46  82 MISG      30.12R
NEW ROADS*     FAIR      42  37  81 CALM      30.10F
GONZALES*      FAIR      46  42  85 SW3       30.11S
HAMMOND*       CLEAR     45  36  70 CALM      30.10F
HOUMA*         CLEAR     46  45  95 W3        30.12S
PORT FOURCHON* SUNNY     55  46  71 W10       30.14F

$$

LAZ041-044-053-054-270800-
SOUTHWEST LOUISIANA

CITY           SKY/WX    TMP DP  RH WIND       PRES   REMARKS
LAKE CHARLES   PTCLDY    50  44  80 SW5       30.11F
LAFAYETTE      PTCLDY    49  44  83 SW6       30.11F
PATTERSON      CLEAR     52  45  76 W9        30.13S
SALT POINT       N/A     53  49  86 W6        30.12S
NEW IBERIA     PTCLDY    48  44  86 W3        30.12F
CHENAULT AIRPK PTCLDY    51  42  70 SW5       30.12S

$$

LAZ027-028-270800-
CENTRAL LOUISIANA

CITY           SKY/WX    TMP DP  RH WIND       PRES   REMARKS
FORT POLK      CLEAR     49  38  66 W2        30.09S
ALEXANDRIA INT CLEAR     45  37  73 NW3       30.07S
ALEXANDRIA     CLEAR     41  36  82 W5        30.08S

$$

LAZ001-002-270800-
NORTHWEST LOUISIANA

CITY           SKY/WX    TMP DP  RH WIND       PRES   REMARKS
SHREVEPORT     PTCLDY    47  37  68 W3        30.05F
BARKSDALE AFB  NOT AVBL
DTN SHREVEPORT CLEAR     41  37  86 CALM      30.06S

$$

LAZ014-016-270800-
NORTHEAST LOUISIANA

CITY           SKY/WX    TMP DP  RH WIND       PRES   REMARKS
MONROE         CLEAR     46  35  65 SW3       30.05F
TALLULAH       CLEAR     41  35  79 SW5       30.04F

$$




USA.gov is the U.S. government's official web portal to all federal, state and local government web resources and services.